FENGYUN 1C DEB

Satellite information

Favourite Embed

Satellite Type and Status

DEBRISIN ORBIT

Key statistics

Satellite FENGYUN 1C DEB at a glance.

Uptime

9556

Days in orbit

Revolutions

≈ 14.2

Per day

Orbit

SSO

Sun Synchronous Orbit

Inclination

98.8

Latest

Satellite identification and parameters

Extended collection of information and parameters for FENGYUN 1C DEB.

Object identification

Identified? True

Debris? True

Object name: FENGYUN 1C DEB

International designator: 1999-025EYG

Object number (NORAD): 41829

Object ID (CCSDS): 41829

Country: PEOPLES REPUBLIC OF CHINA (PRC)

Current information (Y/N): Y

RCS size: SMALL

Orbital parameters

Period: 101.137 minutes

Inclination: 98.7545 deg

SMA: 7190.628 km

Apoapsis: 851.635 km

Periapsis: 773.351 km

RAAN: 257.6226 deg

Eccentricy: 0.0054435

Argument of periapsis: 321.2798 deg

Mean anomaly: 38.4484 deg

Mean motion: 14.23811541 rev/day

Mean motion (dot): 0.00001925 rev/day2

B* drag term: 0.00084807 1/REarth

Two-line elements (TLE)

Creation date: July 6, 2025, 10:36 p.m.

Reference frame: TEME

Reference center: EARTH

Epoch: July 6, 2025, 6:12 p.m. UTC

TLE line 0: 0 FENGYUN 1C DEB

TLE line 1: 1 41829U 99025EYG 25187.75838148 .00001925 00000-0 84807-3 0 9993

TLE line 2: 2 41829 98.7545 257.6226 0054435 321.2798 38.4484 14.23811541450445

Live tracking on map

Real-time ground track for satellite FENGYUN 1C DEB.

In-orbit conjunctions

A list of the most updated potential collisions computed for object FENGYUN 1C DEB.

Target Orbit TCA Probability of collision Miss distance Type
FENGYUN 1C DEB SSO 2024-11-12 21:02:04 0.0001188579 975.0 (m) DEBRIS
SL-16 DEB LEO 2024-09-23 16:40:42 0.0001222526 143.0 (m) DEBRIS

Associated space launch

Chinese polar orbiting meteorological satellite

FENGYUN 1C DEB was lifted into orbit during the mission ‘Long March 4B | Feng Yun 1C’, on board a Long March 4B space rocket.

The launch took place on May 10, 1999, 1:33 a.m. from Launch Complex 7.

For more information about the launch, click the button.

Launch to space Long March 4B | Feng Yun 1C
Long March 4B | Feng Yun 1C

Agency: N/A

Status: Launch Successful

Launch date: May 10, 1999, 1:33 a.m. UTC

Rocket: Long March 4B

Launch pad: Launch Complex 7

Location: Taiyuan Satellite Launch Center, People's Republic of China

...

Latest news about this satellite

There are no fresh news available about this satellite. Check back as we update our databases every day.


Newsletter sign-up

Weekly statistics, charts and insights to help you stay on top of the space industry.